Simultaneous Nadir Overpasses (SNOs) Predictions

Prediction of SNOs between LANDSAT-8 and TERRA Satellite Orbit:

Table of predicted SNOs for the next 14.0 days since TLE Epoch: 12/2/2023
Index Date (LANDSAT-8) Time (LANDSAT-8) Lat,Lon (LANDSAT-8) SZA (LANDSAT-8 ) Date (TERRA) Time (TERRA) Lat,Lon (TERRA) SZA (TERRA ) Distance(km) Time Diff (sec)
1 12/04/2023 15:38:22 81.67, 20.14 110.17 12/04/2023 15:39:34 81.66, 20.19 110.22 0.94 72
2 12/04/2023 16:27:49 -81.67,-172.47 69.86 12/04/2023 16:28:56 -81.67,-172.37 69.81 1.66 67
3 12/04/2023 17:17:15 81.67, -4.59 110.18 12/04/2023 17:18:18 81.67, -4.70 110.20 1.81 63
4 12/04/2023 18:06:41 -81.66, 163.21 69.80 12/04/2023 18:07:39 -81.66, 163.15 69.77 1.08 58
5 12/04/2023 18:56:08 81.67, -29.32 110.19 12/04/2023 18:57:01 81.66, -29.18 110.24 2.26 53
6 12/04/2023 19:45:34 -81.66, 138.49 69.79 12/04/2023 19:46:22 -81.66, 138.66 69.74 2.95 48
7 12/04/2023 20:35:00 81.65, -53.63 110.25 12/04/2023 20:35:44 81.66, -53.66 110.27 0.48 44
8 12/04/2023 21:24:26 -81.65, 114.17 69.73 12/04/2023 21:25:05 -81.65, 114.18 69.71 0.25 39
9 12/04/2023 22:13:52 81.64, -77.95 110.31 12/04/2023 22:14:27 81.65, -78.15 110.30 3.21 35
10 12/04/2023 23:03:19 -81.65, 89.44 69.73 12/04/2023 23:03:49 -81.66, 89.29 69.73 2.53 30
11 12/04/2023 23:52:45 81.64,-102.68 110.32 12/04/2023 23:53:10 81.64,-102.63 110.34 0.86 25
12 12/05/2023 00:42:12 -81.65, 64.71 69.72 12/05/2023 00:42:32 -81.65, 64.80 69.69 1.51 20
13 12/05/2023 01:31:37 81.64,-127.41 110.32 12/05/2023 01:31:53 81.65,-127.52 110.32 1.89 16
14 12/05/2023 02:21:03 -81.64, 40.39 69.66 12/05/2023 02:21:14 -81.64, 40.32 69.66 1.23 11
15 12/05/2023 03:10:30 81.64,-152.14 110.33 12/05/2023 03:10:36 81.64,-152.01 110.35 2.17 6
16 12/05/2023 03:59:56 -81.64, 15.66 69.65 12/05/2023 03:59:57 -81.63, 15.83 69.63 2.79 1
17 12/05/2023 04:49:22 81.63,-176.46 110.39 12/05/2023 04:49:19 81.63,-176.49 110.38 0.57 3
18 12/05/2023 05:38:48 -81.62, -8.66 69.59 12/05/2023 05:38:40 -81.62, -8.66 69.60 0.10 8
19 12/05/2023 06:28:14 81.62, 159.22 110.45 12/05/2023 06:28:02 81.62, 159.02 110.42 3.31 12
20 12/05/2023 07:17:40 -81.61, -32.98 69.53 12/05/2023 07:17:23 -81.62, -33.15 69.56 2.68 17
21 12/05/2023 08:07:07 81.62, 134.49 110.46 12/05/2023 08:06:45 81.62, 134.53 110.45 0.75 22
22 12/05/2023 08:56:33 -81.61, -57.71 69.52 12/05/2023 08:56:06 -81.61, -57.63 69.53 1.36 27
23 12/05/2023 09:45:59 81.60, 110.17 110.52 12/05/2023 09:45:28 81.61, 110.04 110.48 2.00 31
24 12/05/2023 10:35:26 -81.61, -82.44 69.52 12/05/2023 10:34:50 -81.62, -82.52 69.55 1.40 36
25 12/05/2023 11:24:52 81.60, 85.44 110.52 12/05/2023 11:24:11 81.60, 85.56 110.51 2.07 41
26 12/05/2023 12:14:19 -81.61,-107.17 69.51 12/05/2023 12:13:33 -81.61,-107.01 69.52 2.63 46
27 12/05/2023 13:03:45 81.60, 60.70 110.53 12/05/2023 13:02:55 81.61, 60.67 110.49 0.69 50
28 12/05/2023 13:53:11 -81.60,-131.50 69.45 12/05/2023 13:52:16 -81.60,-131.50 69.49 0.12 55
29 12/05/2023 14:42:38 81.61, 35.97 110.53 12/05/2023 14:41:38 81.60, 36.18 110.53 3.37 60
30 12/05/2023 15:32:03 -81.59,-155.83 69.39 12/05/2023 15:30:59 -81.59,-156.00 69.45 2.85 64
31 12/05/2023 16:21:30 81.59, 11.65 110.59 12/05/2023 16:20:21 81.59, 11.69 110.56 0.63 69



Historial Predications of SNOs between LANDSAT-8 and TERRA
